sat.trackr.live / text

‹ back to catalog

HJS-7A

NORAD 65617 · 2025-209A

PAYLOAD ACTIVE UNKNOWN

§ Identity

Operator
Country
PRC
Launch date
2025-09-16
Launch site
JSC
Launch vehicle
Mass (kg)
RCS (m²)

External: N2YO · Heavens-Above · Gunter

§ Orbital elements

Epoch: 2026-09-20T19:24:24.574464Z

Period
107.34 min
Inclination
50.0013°
Eccentricity
0.0000111
Mean motion
13.41475833 rev/d
Perigee alt
1,103.7 km
Apogee alt
1,103.9 km
Semi-major
7,481.9 km
B*
-2.1939e-6
RAAN
8.9657°
Arg perigee
152.3194°
Mean anomaly
207.7689°
Rev number
5,050

§ Raw data

HJS-7A1 65617U 25209A   26263.80861776 -.00000129  00000+0 -21939-5 0  99972 65617  50.0013   8.9657 0000111 152.3194 207.7689 13.41475833 50507

JSON: /api/v1/satellites/65617 · /tle

For live sub-satellite position, see the globe view (requires WebGL).

§ Visibility from observer

Set your observer location to see the next 7 days of passes ≥ 10°. The values pass through the URL so the page stays shareable.

No JS? Fill the form by hand. The geolocation button needs JavaScript.